This demonstration page uses our WeatherBlox Daily Observations layout. Learn more.

Left ArrowRight Arrow

38.80484, -77.04692

Hourly Observations for February 15, 2016

Temp ( °F °C ) Dew Point ( °F °C ) Humidity (%) Winds ( mph kmh ) Pressure ( in mb ) Visibility ( mi km ) Precip ( " mm )
12:30 am 00:30 Mostly Cloudy with Light Snow 19 -7 18 -8 93 93 S 9 15 30.53 1034 1 2 0.00 0.00
12:48 am 00:48 Cloudy with Light Snow 21 -6 18 -8 86 86 SSE 9 15 30.53 1034 1 2 0.00 0.00
12:52 am 00:52 Cloudy with Light Snow 20 -6.7 17 -8.3 89 89 SSE 9 15 30.52 1033 1 2 0.03 0.76
1:04 am 01:04 Mostly Cloudy with Light Snow 19 -7 18 -8 93 93 SSE 9 15 30.50 1033 1 1 0.00 0.00
1:10 am 01:10 Cloudy with Light Snow 21 -6 18 -8 86 86 SSE 8 13 30.53 1034 1 2 0.00 0.00
1:31 am 01:31 Cloudy with Light Snow 20 -6.7 17 -8.3 89 89 SSE 8 13 30.53 1034 2 2 0.03 0.76
1:52 am 01:52 Cloudy with Light Snow 21 -6.1 17 -8.3 85 85 SSE 8 13 30.51 1033 1 2 0.04 1.02
2:05 am 02:05 Cloudy with Light Snow 21 -6.1 17 -8.3 85 85 SSE 8 13 30.53 1034 1 2 0.01 0.25
2:24 am 02:24 Cloudy with Light Snow 21 -6 18 -8 86 86 SSE 9 15 30.50 1033 2 3 0.00 0.00
2:31 am 02:31 Cloudy with Light Snow 21 -6.1 17 -8.3 85 85 SE 8 13 30.50 1033 2 3 0.02 0.51
2:44 am 02:44 Cloudy with Light Snow 21 -6 18 -8 86 86 SE 9 15 30.50 1033 2 2 0.00 0.00
2:52 am 02:52 Cloudy with Light Snow 21 -6.1 17 -8.3 85 85 SE 9 15 30.50 1033 2 2 0.02 0.51
3:52 am 03:52 Cloudy with Light Snow 21 -6.1 17 -8.3 85 85 SSE 8 13 30.49 1033 1 2 0.03 0.76
4:29 am 04:29 Cloudy with Light Snow 21 -6.1 17 -8.3 85 85 SSE 9 15 30.48 1032 2 3 0.01 0.25
4:39 am 04:39 Cloudy with Light Snow 21 -6.1 17 -8.3 85 85 SSE 10 17 30.48 1032 3 5 0.01 0.25
4:52 am 04:52 Cloudy with Light Snow 21 -6.1 18 -7.8 88 88 SSE 8 13 30.47 1032 4 6 0.01 0.25
5:02 am 05:02 Cloudy with Light Snow 21 -6 18 -8 86 86 SSE 8 13 30.48 1032 6 10 0.00 0.00
5:43 am 05:43 Cloudy with Light Snow 22 -5.6 17 -8.3 82 82 SE 8 13 30.45 1031 9 14 0.00 0.03
5:52 am 05:52 Cloudy with Light Snow 22 -5.6 17 -8.3 82 82 SE 7 11 30.47 1032 9 14 0.00 0.03
6:52 am 06:52 Cloudy with Light Snow 22 -5.6 17 -8.3 82 82 SE 7 11 30.45 1031 7 11 0.00 0.03
6:55 am 06:55 Cloudy with Light Snow 22 -5.6 17 -8.3 82 82 SE 6 9 30.45 1031 7 11 0.00 0.03
7:52 am 07:52 Cloudy with Light Snow 22 -5.6 18 -7.8 85 85 SE 6 9 30.44 1031 5 8 0.00 0.03
8:09 am 08:09 Cloudy with Light Snow 22 -5.6 18 -7.8 85 85 SE 5 7 30.45 1031 6 10 0.00 0.03
8:52 am 08:52 Cloudy with Light Snow 23 -5 19 -7.2 85 85 SSE 6 9 30.45 1031 3 5 0.01 0.25
9:11 am 09:11 Cloudy with Light Snow 23 -5 19 -7.2 85 85 SSE 9 15 30.45 1031 2 3 0.01 0.25
9:12 am 09:12 Cloudy with Light Snow 23 -5 19 -7 86 86 SSE 8 13 30.45 1031 2 2 0.00 0.00
9:26 am 09:26 Cloudy with Light Snow 23 -5 19 -7 86 86 SSE 6 9 30.45 1031 1 1 0.00 0.00
9:52 am 09:52 Mostly Cloudy with Snow 24 -4.4 20 -6.7 84 84 SSE 6 9 30.43 1031 1 1 0.03 0.76
9:59 am 09:59 Mostly Cloudy with Snow 24 -4.4 21 -6.1 88 88 SSE 6 9 30.45 1031 1 1 0.01 0.25
10:42 am 10:42 Cloudy with Light Snow 25 -4 21 -6 86 86 SSE 5 7 30.42 1030 1 2 0.00 0.00
10:52 am 10:52 Cloudy with Light Snow 25 -3.9 22 -5.6 88 88 SE 3 6 30.41 1030 1 2 0.05 1.27
10:55 am 10:55 Cloudy with Light Snow 25 -3.9 22 -5.6 88 88 SSE 3 6 30.42 1030 1 1 0.00 0.03
11:05 am 11:05 Cloudy with Light Snow 25 -3.9 22 -5.6 88 88 ESE 3 6 30.42 1030 1 1 0.00 0.03
11:52 am 11:52 Cloudy with Light Snow 26 -3.3 23 -5 88 88 Calm 30.38 1029 1 1 0.03 0.76
11:59 am 11:59 Cloudy with Light Snow 26 -3.3 24 -4.4 92 92 Calm 30.39 1029 2 3 0.00 0.03
12:15 pm 12:15 Cloudy with Light Snow 26 -3.3 23 -5 88 88 Calm 30.36 1028 3 4 0.01 0.25
12:25 pm 12:25 Cloudy with Light Snow 26 -3.3 23 -5 88 88 Calm 30.36 1028 3 5 0.01 0.25
12:52 pm 12:52 Cloudy with Light Snow 27 -2.8 23 -5 85 85 SSE 7 11 30.35 1028 3 5 0.01 0.25
12:58 pm 12:58 Cloudy with Light Snow 27 -3 23 -5 86 86 SSE 5 7 30.36 1028 2 2 0.00 0.00
1:07 pm 13:07 Cloudy with Light Snow 27 -2.8 23 -5 85 85 SSE 5 7 30.33 1027 2 2 0.00 0.03
1:44 pm 13:44 Cloudy with Mist and Fog 27 -3 25 -4 93 93 Calm 30.30 1026 3 5 0.00 0.00
1:52 pm 13:52 Cloudy with Light Snow 27 -2.8 24 -4.4 89 89 ESE 3 6 30.30 1026 5 8 0.00 0.03
2:13 pm 14:13 Cloudy 28 -2.2 24 -4.4 85 85 Calm 30.30 1026 10 16 0.00 0.03
2:38 pm 14:38 Cloudy 28 -2 23 -5 80 80 Calm 30.27 1025 10 16 0.00 0.00
2:52 pm 14:52 Cloudy with Light Freezing Rain 29 -1.7 24 -4.4 82 82 NE 3 6 30.27 1025 10 16 0.00 0.03
2:56 pm 14:56 Cloudy with Light Freezing Rain 28 -2 23 -5 80 80 NE 3 6 30.27 1025 10 16 0.00 0.00
3:08 pm 15:08 Cloudy with Light Freezing Rain 28 -2 25 -4 86 86 ENE 5 7 30.24 1024 8 13 0.00 0.00
3:52 pm 15:52 Cloudy with Light Freezing Rain 29 -1.7 25 -3.9 85 85 NNE 5 7 30.24 1024 7 11 0.01 0.25
3:57 pm 15:57 Cloudy with Light Freezing Rain 29 -1.7 25 -3.9 85 85 NNE 5 7 30.24 1024 8 13 0.00 0.03
4:52 pm 16:52 Cloudy with Light Freezing Drizzle 29 -1.7 26 -3.3 89 89 NE 6 9 30.22 1023 3 5 0.02 0.51
4:54 pm 16:54 Cloudy with Light Freezing Drizzle 28 -2 27 -3 93 93 NE 6 9 30.21 1023 3 4 0.00 0.00
5:00 pm 17:00 Cloudy with Light Freezing Drizzle 28 -2 27 -3 93 93 NE 5 7 30.21 1023 2 3 0.00 0.00
5:04 pm 17:04 Cloudy with Light Freezing Drizzle 28 -2 27 -3 93 93 NE 5 7 30.21 1023 2 3 0.00 0.00
5:06 pm 17:06 Cloudy with Light Freezing Drizzle 28 -2 27 -3 93 93 NE 6 9 30.21 1023 2 3 0.00 0.00
5:19 pm 17:19 Cloudy with Light Freezing Drizzle 29 -1.7 27 -2.8 92 92 ENE 7 11 30.21 1023 2 3 0.00 0.03
5:25 pm 17:25 Cloudy with Light Freezing Drizzle 29 -1.7 27 -2.8 92 92 ENE 7 11 30.21 1023 2 2 0.00 0.03
5:37 pm 17:37 Cloudy with Light Freezing Drizzle 29 -1.7 27 -2.8 92 92 NE 6 9 30.21 1023 2 3 0.00 0.03
5:44 pm 17:44 Cloudy with Light Freezing Drizzle 28 -2 27 -3 93 93 NE 7 11 30.21 1023 3 5 0.00 0.00
5:52 pm 17:52 Cloudy with Light Freezing Rain 29 -1.7 27 -2.8 92 92 NNE 6 9 30.21 1023 4 6 0.00 0.03
6:01 pm 18:01 Cloudy with Light Freezing Rain 29 -1.7 27 -2.8 92 92 NE 7 11 30.21 1023 3 5 0.01 0.25
6:03 pm 18:03 Cloudy with Light Freezing Rain 28 -2 27 -3 93 93 NNE 6 9 30.21 1023 3 4 0.00 0.00
6:30 pm 18:30 Cloudy with Light Freezing Rain 28 -2 27 -3 93 93 NE 5 7 30.21 1023 3 5 0.00 0.00
6:52 pm 18:52 Cloudy with Light Freezing Rain 29 -1.7 27 -2.8 92 92 NE 5 7 30.20 1023 6 10 0.06 1.52
7:02 pm 19:02 Cloudy with Light Freezing Rain 30 -1.1 27 -2.8 88 88 NNE 5 7 30.21 1023 8 13 0.00 0.03
7:11 pm 19:11 Cloudy 29 -1.7 27 -2.8 92 92 NE 5 7 30.18 1022 10 16 0.00 0.03
7:17 pm 19:17 Cloudy with Light Freezing Rain 30 -1 27 -3 86 86 NE 6 9 30.18 1022 8 13 0.00 0.00
7:19 pm 19:19 Cloudy with Freezing Rain 30 -1.1 27 -2.8 88 88 NE 6 9 30.18 1022 7 11 0.01 0.25
7:22 pm 19:22 Cloudy with Light Freezing Rain 30 -1 27 -3 86 86 NE 6 9 30.18 1022 6 10 0.00 0.00
7:25 pm 19:25 Cloudy with Freezing Rain 30 -1.1 27 -2.8 88 88 NE 7 11 30.18 1022 4 6 0.02 0.51
7:30 pm 19:30 Cloudy with Light Freezing Rain 30 -1 27 -3 86 86 ENE 7 11 30.18 1022 5 8 0.00 0.00
7:39 pm 19:39 Cloudy 30 -1.1 27 -2.8 88 88 NE 6 9 30.18 1022 10 16 0.03 0.76
7:45 pm 19:45 Cloudy 30 -1.1 27 -2.8 88 88 NE 7 11 30.18 1022 10 16 0.03 0.76
7:52 pm 19:52 Cloudy 30 -1.1 26 -3.3 85 85 NE 8 13 30.16 1022 10 16 0.03 0.76
8:17 pm 20:17 Cloudy with Light Freezing Rain 30 -1 27 -3 86 86 NE 5 7 30.15 1021 7 11 0.00 0.00
8:19 pm 20:19 Cloudy with Light Freezing Rain 30 -1.1 27 -2.8 88 88 NE 5 7 30.15 1021 7 11 0.00 0.03
8:31 pm 20:31 Cloudy 30 -1.1 27 -2.8 88 88 ENE 6 9 30.15 1021 10 16 0.00 0.03
8:52 pm 20:52 Cloudy 30 -1.1 27 -2.8 88 88 NE 6 9 30.14 1021 9 14 0.00 0.03
9:08 pm 21:08 Cloudy with Light Freezing Drizzle 30 -1 27 -3 86 86 E 6 9 30.12 1020 6 10 0.00 0.00
9:12 pm 21:12 Cloudy with Light Freezing Rain 30 -1 28 -2 93 93 E 6 9 30.12 1020 4 6 0.00 0.00
9:24 pm 21:24 Cloudy with Light Freezing Rain 30 -1 28 -2 93 93 ENE 5 7 30.12 1020 3 4 0.00 0.00
9:30 pm 21:30 Cloudy with Light Freezing Rain 30 -1 28 -2 93 93 ENE 6 9 30.12 1020 3 4 0.00 0.00
9:36 pm 21:36 Cloudy with Light Freezing Rain 28 -2 27 -3 93 93 NE 5 7 30.12 1020 3 5 0.00 0.00
9:41 pm 21:41 Cloudy with Light Freezing Rain 30 -1.1 27 -2.8 88 88 NE 6 9 30.12 1020 3 5 0.07 1.78
9:52 pm 21:52 Cloudy with Light Freezing Rain 30 -1.1 27 -2.8 88 88 ENE 7 11 30.10 1019 5 8 0.07 1.78
10:16 pm 22:16 Cloudy with Light Freezing Rain 30 -1 27 -3 86 86 NE 3 6 30.09 1019 5 8 0.00 0.00
10:23 pm 22:23 Cloudy with Light Freezing Rain 30 -1.1 28 -2.2 92 92 NE 5 7 30.09 1019 4 6 0.00 0.03
10:25 pm 22:25 Cloudy with Light Freezing Drizzle 30 -1.1 28 -2.2 92 92 NE 5 7 30.09 1019 4 6 0.00 0.03
10:36 pm 22:36 Cloudy 30 -1 28 -2 93 93 NE 6 9 30.09 1019 7 11 0.00 0.00
10:52 pm 22:52 Cloudy 30 -1.1 28 -2.2 92 92 NE 5 7 30.07 1018 8 13 0.00 0.03
11:28 pm 23:28 Cloudy with Light Freezing Drizzle 30 -1 28 -2 93 93 NE 6 9 30.06 1018 7 11 0.00 0.00
11:33 pm 23:33 Cloudy with Light Freezing Rain 30 -1.1 28 -2.2 92 92 NE 5 7 30.06 1018 7 11 0.00 0.03
11:52 pm 23:52 Cloudy with Light Freezing Rain 31 -0.6 28 -2.2 89 89 NNE 5 7 30.05 1018 5 8 0.01 0.25

Powered by AerisWeather